Tracking 28126 objects as of 1-Oct-2023
HD Live streaming from Space Station
objects crossing your sky now

COSMOS 839 DEB

Track COSMOS 839 DEB now!
10-day predictions


NORAD ID: 10412
Int'l Code: 1976-067F
Perigee: 1,000.4 km
Apogee: 2,079.8 km
Inclination: 65.7 °
Period: 116.7 minutes
Semi major axis: 7911 km
RCS: 0.1208 m2 (medium)
Launch date: July 8, 1976
Source: Commonwealth of Independent States (former USSR) (CIS)
Launch site: PLESETSK MISSILE AND SPACE COMPLEX (PKMTR)

Note: This is SATELLITE DEBRIS
Your satellite tracking list
Your tracking list is empty




NASA's NSSDC Master Catalog

Two Line Element Set (TLE):
1 10412U 76067F   23273.96661514 -.00000029  00000-0  96763-4 0  9996
2 10412  65.6795 111.1112 0682212  38.5657  68.8818 12.33810033127790
Source of the keplerian elements: AFSPC